Location: Newark
(30.3369°N, 81.6614°W)
Time: 19:28:25
(UTC+00:00)

N. Korean satellite - Pass Details

Date: 08 October 2020
Orbit: 452 x 505 km, 97.2° (Epoch: 28 October)

Event Time Altitude Azimuth Distance (km) Brightness Sun altitude
Rises 10:40:21 0° 16° (NNE) 2,514 10.4 -10.4°
Reaches altitude 10° 10:42:27 10° 20° (NNE) 1,625 9.5 -9.9°
Maximum altitude 10:45:53 58° 100° (E) 545 7.2 -9.2°
Drops below altitude 10° 10:49:15 10° 180° (S) 1,591 9.2 -8.4°
Sets 10:51:17 0° 184° (S) 2,455 10.1 -8.0°
